#timestamp,LO_Frequency,Hit,StdDev 
1456120815.4,286046999.7,N
1456120835.3,286047003.9,N
1456120855.1,286047003.4,N
1456120856.0,286047003.4,N
1456120875.8,286047006.0,N
1456120895.7,286047006.3,N
1456120915.5,286047008.6,N
1456120935.3,286047004.6,N
1456120955.2,286047004.7,N
1456120975.9,286047003.5,N
1456120995.7,286047006.9,N
1456121015.5,286047009.2,N
1456121035.4,286047006.2,N
1456121055.2,286047008.6,N
1456121075.0,286047004.7,N
1456121075.9,286047004.7,N
1456121095.8,286047004.5,N
1456121115.6,286047004.9,N
1456121135.4,286047006.0,N
1456121155.3,286047007.3,Y
1456121175.1,286047000.1,P
1456121195.8,286047002.4,N
1456121215.7,286047002.7,N
1456121235.5,286047003.0,N
1456121255.3,286047005.6,Y
1456121275.2,286047001.0,P
1456121295.0,286046998.4,N
1456121295.9,286046998.4,N
1456121315.7,286047000.3,N
1456121335.6,286047006.0,Y
1456121355.4,286047005.2,P
1456121375.2,286047003.0,N
1456121395.1,286047004.0,N
1456121396.0,286047004.0,N
1456121415.8,286047004.1,N
1456121435.6,286047008.5,Y
1456121455.5,286047005.2,P
1456121475.3,286047004.2,P
1456121495.1,286047005.0,P
1456121515.9,286047004.3,Y
1456121535.7,286046997.5,P
1456121555.5,286046999.3,N
1456121575.4,286046997.9,N
1456121595.2,286046995.3,N
1456121615.0,286046998.0,N
1456121615.9,286046998.0,N
1456121635.8,286046996.8,N
1456121655.6,286046997.2,N
1456121675.4,286046997.3,N
1456121695.3,286046997.4,N
1456121715.1,286046998.5,N
1456121716.0,286046998.5,N
1456121735.8,286047002.1,N
1456121755.7,286047004.2,N
1456121775.5,286047001.6,N
1456121795.3,286046996.9,N
1456121815.2,286046996.1,N
1456121835.9,286046995.8,N
1456121855.7,286046995.7,N
1456121875.5,286046999.3,N
1456121895.4,286047001.2,N
1456121915.2,286046999.3,N
1456121935.0,286046996.3,N
1456121935.9,286046996.3,N
1456121955.8,286046991.1,Y
1456121975.6,286046987.1,P
1456121995.4,286046989.5,N
1456122015.3,286046988.5,N
1456122035.1,286046991.1,N
1456122055.8,286046991.6,N
1456122075.7,286046992.3,N
1456122095.5,286046995.7,N
1456122115.3,286046995.5,N
1456122135.2,286046993.7,N
1456122155.9,286046994.1,N
1456122175.7,286046991.1,N
1456122195.6,286046989.4,Y
1456122215.4,286046996.0,P
1456122235.2,286046997.5,N
1456122255.1,286046995.3,N
1456122256.0,286046995.3,N
1456122275.8,286046995.2,N
1456122295.6,286046995.4,Y
1456122315.5,286047004.2,P
1456122335.3,286047003.9,N
1456122355.1,286047004.3,N
1456122375.9,286047002.3,N
1456122395.7,286047002.8,N
1456122415.5,286046998.7,N
1456122435.3,286046997.1,N
1456122455.2,286046996.4,N
1456122475.0,286046996.8,N
1456122475.9,286046996.8,N
1456122495.7,286046998.0,N
1456122515.6,286046998.3,N
1456122535.4,286046999.4,N
1456122555.2,286046998.2,N
1456122575.1,286046998.3,N
1456122576.0,286046998.3,N
1456122595.8,286046998.6,N
1456122615.6,286046996.2,N
1456122635.5,286046995.7,N
1456122655.3,286046991.8,N
1456122675.1,286046988.5,Y
1456122695.9,286046988.2,P
1456122715.7,286046988.3,N
1456122735.5,286046983.9,P
1456122755.4,286046983.5,Y
1456122775.2,286046992.5,P
1456122795.0,286046988.8,P
1456122795.9,286046988.8,P
1456122815.8,286046991.2,Y
1456122835.6,286047002.9,P
1456122855.4,286047001.4,N
1456122875.3,286047004.9,N
1456122895.1,286047007.4,N
1456122896.0,286047007.4,N
1456122915.8,286047008.7,N
1456122935.7,286047006.9,N
1456122955.5,286047007.4,N
1456122975.3,286047007.3,N
1456122995.2,286047007.0,N
1456123015.9,286047008.8,N
1456123035.7,286047005.1,N
1456123055.5,286047010.6,N
1456123075.4,286047013.2,N
1456123095.2,286047014.8,N
1456123115.0,286047015.9,N
1456123115.9,286047015.9,N
1456123135.8,286047014.8,N
1456123155.6,286047016.1,N
1456123175.4,286047014.8,N
1456123195.3,286047013.5,N
1456123215.1,286047013.2,N
1456123216.0,286047013.2,N
1456123235.8,286047009.6,N
1456123255.7,286047009.5,N
1456123275.5,286047013.5,N
1456123295.3,286047013.2,N
1456123315.2,286047010.5,N
1456123335.9,286047006.7,N
1456123355.7,286047007.3,N
1456123375.5,286047007.5,N
1456123395.4,286047006.2,N
1456123415.2,286047008.7,N
1456123435.0,286047006.2,N
1456123435.9,286047006.2,N
1456123455.8,286047006.4,N
1456123475.6,286047011.1,Y
1456123495.4,286047003.6,P
1456123515.3,286047002.8,N
1456123535.1,286047000.6,N
1456123555.8,286047001.7,N
1456123575.7,286047004.8,N
1456123595.5,286047005.2,N
1456123615.3,286047006.8,N
1456123635.2,286047007.8,N
1456123655.9,286047006.6,N
1456123675.7,286047005.4,N
1456123695.6,286047007.3,N
1456123715.4,286047007.9,N
1456123735.2,286047012.2,Y
1456123755.1,286047006.1,P
1456123756.0,286047006.1,P
1456123775.8,286047011.5,P
1456123795.6,286047009.4,Y
1456123815.5,286047002.1,P
1456123835.3,286047003.2,N
1456123855.1,286047004.1,N
1456123875.9,286046999.7,N
1456123895.7,286047002.7,N
1456123915.5,286046998.3,N
1456123935.4,286046999.1,N
1456123955.2,286047001.2,N
1456123975.0,286047003.9,N
1456123975.9,286047003.9,N
1456123995.7,286047004.8,N
1456124015.6,286047003.6,N
1456124035.4,286047005.8,N
1456124055.2,286047000.9,N
1456124075.1,286047002.2,N
1456124076.0,286047002.2,N
1456124095.8,286047007.1,Y
1456124115.6,286047003.4,P
1456124135.5,286047002.9,P
1456124155.3,286047001.7,P
1456124175.1,286047005.4,Y
1456124195.9,286047002.1,P
1456124215.7,286046998.5,P
1456124235.5,286046996.3,N
1456124255.4,286046991.7,Y
1456124275.2,286046989.1,P
1456124295.0,286046989.1,N
1456124295.9,286046989.1,N
1456124315.8,286046992.6,N
1456124335.6,286046991.9,N
1456124355.4,286046993.9,N
1456124375.3,286046994.4,N
1456124395.1,286046994.5,N
1456124396.0,286046994.5,N
